Date,TemperatureHighF,TemperatureAvgF,TemperatureLowF,DewpointHighF,DewpointAvgF,DewpointLowF,HumidityHigh,HumidityAvg,HumidityLow,PressureMaxIn,PressureMinIn,WindSpeedMaxMPH,WindSpeedAvgMPH,GustSpeedMaxMPH,PrecipitationSumIn
2013-1-1,48.1,35.7,24.1,26.8,19.7,14.2,89,57,27,30.36,30.25,18,2,19,0.00
2013-1-2,53.1,37.2,26.6,18.5,15.4,11.5,63,44,21,30.32,30.17,13,1,16,0.00
2013-1-3,55.3,36.9,23.6,20.2,14.7,7.7,76,45,15,30.35,30.21,19,2,19,0.00
2013-1-4,53.6,36.4,21.6,16.1,13.1,6.0,75,43,15,30.40,30.26,7,0,7,0.00
2013-1-5,53.5,38.2,24.0,19.8,13.8,6.0,69,41,15,30.41,30.19,6,0,10,0.00
2013-1-6,49.1,44.1,40.0,37.0,33.0,15.6,83,67,29,30.19,30.00,21,6,25,0.00
2013-1-7,56.9,42.6,31.3,34.8,27.0,16.6,92,59,22,30.18,30.05,9,1,12,0.01
2013-1-8,64.3,45.5,30.5,30.9,27.0,22.4,73,52,26,30.26,30.12,8,1,10,0.00
2013-1-9,64.1,50.0,34.1,37.6,32.1,28.2,83,53,31,30.24,29.89,15,1,18,0.00
2013-1-10,48.8,39.7,33.9,40.7,28.0,20.4,85,63,42,30.08,29.86,39,12,39,0.00
2013-1-11,40.9,36.5,33.8,24.0,21.9,17.0,63,55,46,30.19,30.05,27,8,31,0.00
2013-1-12,44.2,33.5,23.0,22.8,16.2,9.0,83,52,25,30.21,30.08,11,1,15,0.00
2013-1-13,45.6,30.7,18.9,18.8,14.1,8.8,79,53,25,30.26,30.09,21,2,25,0.00
2013-1-14,39.4,28.1,16.7,9.0,2.0,-3.9,61,36,16,30.48,30.26,14,2,16,0.00
2013-1-15,49.4,33.8,21.0,13.7,7.7,0.3,54,35,21,30.61,30.46,15,2,17,0.00
2013-1-16,57.4,40.5,28.3,21.9,16.3,9.1,57,39,24,30.54,30.35,14,2,16,0.00
2013-1-17,62.8,43.4,30.5,19.6,13.7,6.8,61,35,11,30.38,30.25,15,2,19,0.00
2013-1-18,62.5,42.6,27.2,16.1,13.1,9.6,58,34,13,30.34,30.20,13,1,14,0.00
2013-1-19,63.9,42.9,27.1,15.8,12.4,6.2,54,33,11,30.38,30.23,11,1,13,0.00
2013-1-20,63.7,43.2,26.6,14.9,11.1,6.3,56,31,11,30.32,30.16,10,1,11,0.00
2013-1-21,67.0,44.7,27.3,14.2,9.4,0.5,53,28,7,30.28,30.15,14,1,16,0.00
2013-1-22,64.2,44.9,28.4,15.9,11.4,5.6,47,29,10,30.26,30.13,6,0,6,0.01
2013-1-23,64.1,51.5,39.9,34.2,17.4,10.9,46,28,13,30.19,30.07,6,0,6,0.00
2013-1-24,55.4,51.1,46.8,49.2,46.1,34.2,93,84,47,30.20,30.08,7,0,8,0.21
2013-1-25,51.7,50.0,48.1,49.5,47.7,45.7,96,92,87,30.20,30.00,5,0,6,0.19
2013-1-26,62.1,53.7,50.4,53.7,48.5,44.6,97,83,58,30.00,29.84,28,4,28,0.07
2013-1-27,52.5,44.6,39.5,47.5,34.5,26.8,88,68,49,30.02,29.89,31,11,32,0.01
2013-1-28,46.9,41.3,37.2,28.5,27.0,24.6,67,57,43,30.20,30.01,32,9,32,0.00
2013-1-29,60.0,46.5,37.5,33.0,29.8,27.5,78,54,31,30.26,30.09,26,6,28,0.00
2013-1-30,63.5,46.8,32.8,35.6,31.8,28.8,92,60,30,30.39,30.25,7,0,8,0.00
2013-1-31,66.3,48.6,33.4,34.8,32.5,28.9,87,58,28,30.32,30.16,10,1,13,0.00
2013-2-1,65.7,49.8,34.4,35.9,33.0,29.6,86,56,29,30.25,30.15,6,0,7,0.00
2013-2-2,63.9,53.8,44.0,44.9,35.8,32.2,73,53,31,30.29,30.17,7,0,10,0.02
2013-2-3,64.9,52.7,42.9,45.3,41.8,38.0,89,68,37,30.18,30.05,8,0,8,0.00
2013-2-4,69.4,58.4,45.8,34.2,29.3,24.4,54,35,19,30.12,29.98,8,1,12,0.00
2013-2-5,70.0,53.6,37.2,42.0,32.3,26.3,75,48,21,30.03,29.88,23,4,24,0.00
2013-2-6,66.1,52.3,38.7,40.9,24.4,5.0,73,39,10,30.05,29.94,19,3,22,0.00
2013-2-7,63.1,45.0,32.4,40.6,21.2,9.2,54,39,26,30.08,29.93,26,3,29,0.00
2013-2-8,38.0,37.2,35.8,34.6,31.4,28.6,90,80,71,29.90,29.82,19,8,22,0.04
2013-2-9,51.8,42.8,36.8,31.8,28.5,22.5,72,58,36,30.04,29.90,21,7,23,0.00
2013-2-10,53.6,44.0,36.5,36.3,29.3,20.0,76,59,28,30.05,29.95,17,4,20,0.00
2013-2-11,52.7,40.1,27.4,29.9,16.8,4.7,85,46,15,30.28,30.05,31,3,33,0.00
2013-2-12,57.5,41.0,25.1,20.5,13.5,8.1,60,36,15,30.40,30.28,7,1,10,0.00
2013-2-13,63.9,45.6,30.7,26.8,21.0,15.2,73,43,16,30.34,30.17,7,1,10,0.00
2013-2-14,67.8,49.2,31.7,26.0,23.1,19.1,70,40,17,30.28,30.14,21,2,22,0.00
2013-2-15,68.3,51.4,34.1,27.7,20.8,13.3,67,35,12,30.33,30.23,25,4,26,0.00
2013-2-16,69.0,50.3,34.8,25.4,19.2,14.9,56,32,13,30.31,30.00,8,0,10,0.00
2013-2-17,67.1,53.3,37.2,36.1,23.1,17.7,49,33,15,30.00,29.86,24,5,25,0.00
2013-2-18,65.7,50.3,37.4,38.5,31.1,25.1,74,50,26,29.99,29.83,22,5,27,0.00
2013-2-19,50.2,43.4,35.8,40.0,35.5,29.7,89,74,56,29.87,29.64,34,9,34,0.15
2013-2-20,47.2,39.9,33.5,30.4,26.7,22.9,82,60,41,29.99,29.65,32,13,36,0.00
2013-2-21,53.6,44.6,34.3,31.2,25.4,15.5,72,49,23,30.11,29.96,22,5,26,0.00
2013-2-22,61.9,45.3,28.0,30.2,24.3,18.4,78,48,19,30.23,30.10,16,2,22,0.00
2013-2-23,60.8,50.5,38.3,35.5,29.6,21.5,70,45,29,30.15,29.86,39,10,39,0.00
2013-2-24,55.2,44.4,32.3,30.6,8.5,0.7,68,25,11,30.25,30.07,29,6,32,0.00
2013-2-25,66.2,48.3,28.1,22.7,13.6,4.1,51,27,13,30.26,30.04,24,4,28,0.00
2013-2-26,62.9,49.6,33.6,28.8,17.3,7.6,67,32,12,30.19,30.03,18,4,19,0.00
2013-2-27,61.6,46.7,32.0,17.0,11.4,8.0,42,26,12,30.36,30.19,15,2,17,0.00
2013-2-28,68.1,49.1,31.1,20.9,13.4,4.5,57,29,8,30.43,30.32,11,1,12,0.00
2013-3-1,74.2,54.8,34.3,26.4,20.7,15.9,62,30,12,30.42,30.23,18,2,19,0.00
2013-3-2,76.8,59.3,38.9,27.8,23.4,19.1,56,28,12,30.29,30.04,23,3,23,0.00
2013-3-3,70.1,61.5,53.6,40.3,30.5,17.9,58,33,17,30.06,29.85,24,6,29,0.00
2013-3-4,71.0,59.0,47.1,44.0,38.2,29.9,70,48,22,30.01,29.90,19,4,23,0.00
2013-3-5,66.8,54.4,44.3,44.1,40.8,33.5,84,62,30,30.00,29.88,23,5,29,0.00
2013-3-6,55.2,48.4,43.9,43.4,39.8,35.7,84,72,59,30.02,29.91,34,10,34,0.00
2013-3-7,53.7,47.5,42.0,41.3,37.8,33.1,82,69,51,29.94,29.79,21,4,23,0.00
2013-3-8,50.0,43.1,37.1,38.3,35.7,34.1,93,76,59,29.98,29.74,22,6,29,0.35
2013-3-9,57.0,46.9,38.3,36.0,33.1,29.7,73,60,40,30.23,29.97,26,7,28,0.00
2013-3-10,67.5,49.8,31.2,33.4,24.4,13.0,85,45,13,30.36,30.20,14,2,17,0.00
2013-3-11,74.3,54.3,34.3,34.1,25.6,14.8,71,39,11,30.23,30.03,8,1,9,0.00
2013-3-12,79.4,58.6,38.3,33.4,26.7,19.0,70,35,11,30.14,30.01,7,1,13,0.00
2013-3-13,83.7,62.4,42.4,33.0,28.2,22.4,58,32,11,30.18,30.02,12,1,12,0.00
2013-3-14,88.2,66.6,45.1,36.5,31.0,26.3,59,30,11,30.12,29.95,12,1,18,0.00
2013-3-15,85.8,69.1,54.9,41.7,33.4,9.3,48,30,7,29.98,29.81,24,4,29,0.00
2013-3-16,77.4,67.6,60.3,40.8,32.3,25.7,45,28,17,29.88,29.77,30,9,34,0.00
2013-3-17,78.8,61.8,55.6,44.2,30.6,14.9,56,33,9,29.92,29.82,27,10,31,0.00
2013-3-18,77.5,63.7,45.4,38.4,24.9,10.4,48,25,11,29.97,29.86,23,5,23,0.00
2013-3-19,76.7,65.9,57.0,39.2,30.4,21.0,37,27,18,30.01,29.91,24,8,24,0.00
2013-3-20,72.5,62.9,51.6,42.3,36.8,24.0,61,39,18,29.99,29.89,28,8,28,0.00
2013-3-21,75.2,60.8,52.4,44.5,35.4,13.6,72,43,10,29.90,29.72,29,10,29,0.00
2013-3-22,72.9,57.2,47.5,39.6,29.8,20.5,61,37,17,29.92,29.74,38,8,38,0.00
2013-3-23,72.8,57.9,40.2,30.9,11.0,-25.7,45,21,2,30.03,29.87,24,4,24,0.00
2013-3-24,75.7,60.7,42.8,26.4,13.8,-15.7,34,18,4,30.02,29.84,18,2,18,0.00
2013-3-25,77.2,61.3,43.9,34.6,28.0,21.2,53,30,13,29.92,29.80,17,4,17,0.00
2013-3-26,76.0,64.8,55.8,44.0,32.9,24.2,51,32,18,29.86,29.77,16,4,16,0.00
2013-3-27,71.0,62.6,57.3,46.9,40.6,35.8,63,45,32,29.92,29.78,20,6,20,0.00
2013-3-28,75.4,62.1,48.6,45.3,40.8,33.5,80,49,23,29.98,29.90,19,3,19,0.00
2013-3-29,80.2,64.1,46.4,43.7,40.3,34.3,80,46,21,30.03,29.94,19,3,21,0.00
2013-3-30,76.0,64.6,53.4,41.7,35.6,22.3,57,36,15,30.01,29.88,22,5,22,0.00
2013-3-31,63.4,56.7,50.8,49.8,44.9,30.3,82,66,37,30.01,29.90,20,6,21,0.00
2013-4-1,65.2,55.7,47.5,46.0,42.7,39.9,80,63,41,30.08,29.97,22,6,22,0.00
2013-4-2,76.7,61.7,50.7,42.9,38.4,31.9,66,45,21,30.04,29.91,20,5,20,0.00
2013-4-3,82.3,63.7,44.1,38.8,34.7,30.0,71,38,17,30.05,29.92,20,2,20,0.00
2013-4-4,75.9,66.9,59.6,47.8,38.3,21.6,59,36,17,29.97,29.87,19,5,19,0.00
2013-4-5,71.1,61.3,55.1,48.1,42.8,32.8,73,52,31,29.97,29.89,30,9,30,0.00
2013-4-6,73.6,61.6,53.9,43.8,39.3,32.7,66,46,24,30.01,29.89,31,11,31,0.00
2013-4-7,74.7,62.0,54.1,44.3,38.1,25.2,69,44,20,29.91,29.72,30,12,30,0.00
2013-4-8,59.3,51.3,46.0,43.0,34.8,25.6,72,53,40,29.81,29.58,37,14,37,0.00
2013-4-9,69.6,55.5,45.1,32.7,24.1,13.8,54,32,12,30.03,29.80,24,6,24,0.00
2013-4-10,77.4,60.0,39.7,32.0,22.8,11.9,56,28,9,30.14,29.94,20,4,20,0.00
2013-4-11,79.0,69.1,62.8,43.2,38.3,30.8,48,33,20,29.94,29.63,21,7,21,0.00
2013-4-12,84.4,67.6,51.0,44.3,39.4,27.6,66,40,13,29.79,29.66,14,2,14,0.00
2013-4-13,76.7,67.1,59.6,46.0,41.6,37.7,57,40,26,29.76,29.62,19,5,19,0.00
2013-4-14,73.8,62.1,52.8,46.9,43.0,36.9,73,52,27,29.69,29.62,34,8,34,0.00
2013-4-15,60.4,54.0,48.6,45.5,43.0,40.6,83,67,55,29.76,29.66,24,8,24,0.00
2013-4-16,56.1,48.5,40.2,41.2,27.1,20.3,77,45,26,29.99,29.76,30,9,30,0.00
2013-4-17,65.2,52.9,43.6,26.0,20.9,13.2,48,30,14,30.16,29.99,19,4,19,0.00
2013-4-18,67.7,53.4,36.9,24.0,15.3,3.3,57,27,8,30.28,30.15,20,3,20,0.00
2013-4-19,80.0,61.5,39.6,31.1,21.3,9.3,56,26,8,30.21,29.96,26,4,26,0.00
2013-4-20,83.6,71.0,55.0,36.9,30.0,18.1,46,24,9,29.98,29.82,22,4,22,0.00
2013-4-21,88.2,69.6,49.0,37.0,31.9,18.1,52,28,8,29.93,29.82,15,2,15,0.00
2013-4-22,87.0,74.1,65.8,45.8,34.0,16.9,41,24,13,29.87,29.68,26,4,26,0.00
2013-4-23,79.8,69.7,55.7,41.8,28.8,15.7,53,25,10,29.88,29.69,22,4,22,0.00
2013-4-24,81.6,67.0,51.9,49.5,40.4,23.7,72,42,12,29.82,29.67,30,6,33,0.00
2013-4-25,73.5,62.4,51.4,47.8,43.0,35.6,79,51,33,29.97,29.76,29,7,29,0.00
2013-4-26,86.5,71.0,57.0,45.8,38.6,20.4,60,34,9,30.06,29.95,14,2,19,0.00
2013-4-27,91.2,74.1,53.1,41.4,32.5,14.4,55,26,6,30.07,29.90,18,2,19,0.00
2013-4-28,94.8,80.0,60.9,47.0,33.6,12.8,47,20,5,29.91,29.71,19,3,24,0.00
2013-4-29,93.0,77.9,58.8,46.6,32.0,17.0,42,21,8,29.74,29.59,19,3,23,0.00
2013-4-30,83.2,72.4,62.9,49.7,42.3,35.1,53,35,19,29.68,29.58,22,7,24,0.00
2013-5-1,82.1,69.8,51.7,43.5,16.2,-12.2,65,22,3,30.06,29.68,25,5,27,0.00
2013-5-2,79.1,64.7,46.3,21.1,4.1,-17.0,31,11,2,30.22,30.05,28,5,29,0.00
2013-5-3,87.7,69.1,45.0,26.8,12.4,0.9,39,14,4,30.07,29.74,18,1,18,0.00
2013-5-4,80.8,71.7,55.8,44.0,32.3,19.4,64,25,12,29.74,29.51,31,6,37,0.00
2013-5-5,63.5,56.0,51.4,47.3,44.3,40.9,79,65,50,29.84,29.58,26,4,26,0.00
2013-5-6,62.9,54.8,50.8,51.0,46.1,42.3,91,73,55,29.91,29.80,25,4,28,0.13
2013-5-7,66.1,56.4,49.0,46.4,43.7,41.3,80,63,44,29.96,29.90,18,4,21,0.00
2013-5-8,71.6,59.9,51.0,47.8,45.0,42.5,77,59,40,30.00,29.93,21,4,23,0.00
2013-5-9,77.3,65.1,51.5,49.4,46.1,42.4,79,52,31,30.00,29.90,22,2,22,0.00
2013-5-10,86.7,73.2,56.9,51.2,44.9,38.0,71,40,19,30.03,29.91,21,3,22,0.00
2013-5-11,92.8,79.0,58.4,49.2,42.1,31.3,62,30,12,30.01,29.89,16,2,17,0.00
2013-5-12,96.5,83.7,64.2,54.1,42.1,31.5,50,25,11,29.98,29.82,16,2,18,0.00
2013-5-13,96.8,84.4,64.8,50.0,38.9,29.9,48,22,11,29.89,29.77,20,2,23,0.00
2013-5-14,86.7,78.2,71.7,42.1,32.2,9.8,32,20,6,29.83,29.72,20,3,23,0.00
2013-5-15,86.7,75.8,69.1,50.4,44.0,35.7,45,33,18,29.83,29.75,21,5,24,0.00
2013-5-16,78.7,69.5,60.4,51.6,43.7,33.5,60,40,27,29.79,29.73,20,4,25,0.00
2013-5-17,75.5,65.1,57.5,51.5,45.4,38.3,65,50,29,29.86,29.77,24,7,28,0.00
2013-5-18,83.0,69.5,57.6,43.2,29.6,20.2,49,25,13,29.93,29.85,30,6,31,0.00
2013-5-19,86.4,72.5,62.2,40.3,32.4,23.6,41,24,11,29.90,29.79,27,8,27,0.00
2013-5-20,86.5,73.8,54.2,44.7,33.8,21.9,57,27,10,29.95,29.80,17,2,20,0.00
2013-5-21,87.4,75.0,58.8,50.7,40.0,30.3,47,30,15,29.84,29.66,18,2,23,0.00
2013-5-22,77.0,67.0,55.8,51.8,37.5,22.9,52,34,22,29.71,29.62,21,6,25,0.00
2013-5-23,71.5,61.4,49.6,47.5,35.6,17.2,61,39,22,29.85,29.71,20,3,20,0.00
2013-5-24,75.8,62.9,45.1,46.7,35.4,24.9,60,38,18,29.87,29.78,21,3,31,0.00
2013-5-25,73.8,65.1,57.5,47.4,41.2,31.1,56,42,30,29.87,29.82,21,4,26,0.00
2013-5-26,77.0,66.6,58.6,50.5,42.5,35.8,54,43,25,29.91,29.85,22,5,24,0.00
2013-5-27,81.7,69.1,60.1,44.3,38.0,30.6,54,34,17,29.89,29.76,34,9,34,0.00
2013-5-28,73.1,66.1,58.8,50.1,45.6,39.0,66,48,32,29.79,29.63,52,11,52,0.00
2013-5-29,79.4,69.9,60.8,49.8,45.1,37.5,63,42,25,29.78,29.62,38,11,45,0.00
2013-5-30,90.3,76.1,59.9,46.6,27.3,-2.7,47,21,4,29.77,29.68,37,7,39,0.00
2013-5-31,96.0,80.4,66.3,48.7,33.1,23.9,50,20,8,29.80,29.68,20,3,26,0.00
2013-6-1,99.4,81.3,60.2,48.7,38.9,23.9,57,28,7,29.79,29.63,13,2,16,0.00
2013-6-2,92.5,79.3,65.5,48.6,41.7,36.4,47,27,16,29.65,29.50,22,4,28,0.00
2013-6-3,88.8,77.8,67.4,49.9,41.6,33.1,37,28,20,29.68,29.56,25,4,26,0.00
2013-6-4,88.3,76.8,67.4,46.4,39.0,25.6,44,27,15,29.76,29.65,23,4,29,0.00
2013-6-5,96.7,81.4,67.9,50.2,43.5,33.4,40,27,16,29.79,29.68,23,3,24,0.00
2013-6-6,100.2,82.8,64.6,53.1,48.5,39.0,59,33,14,29.73,29.62,23,2,23,0.00
2013-6-7,104.9,86.0,64.3,52.9,45.4,31.2,56,28,8,29.69,29.56,16,2,20,0.00
2013-6-8,107.3,87.8,69.7,54.0,42.7,25.7,48,23,9,29.65,29.54,30,4,30,0.00
2013-6-9,91.9,82.8,70.4,46.7,37.9,27.4,38,21,13,29.69,29.62,21,3,22,0.00
2013-6-10,80.5,71.7,59.9,48.7,43.1,32.3,62,37,24,29.80,29.66,27,3,27,0.00
2013-6-11,96.7,80.4,61.5,46.8,39.3,25.5,51,26,9,29.82,29.72,22,3,23,0.00
2013-6-12,90.3,79.6,67.0,50.3,40.2,27.9,43,25,14,29.80,29.73,27,3,27,0.00
2013-6-13,90.5,78.3,67.1,47.8,37.1,16.3,44,24,12,29.84,29.75,21,3,25,0.00
2013-6-14,93.7,76.4,56.6,44.9,31.9,14.1,52,21,10,29.79,29.65,17,2,21,0.00
2013-6-15,87.2,75.7,66.0,41.3,32.3,18.8,34,21,13,29.81,29.70,18,4,26,0.00
2013-6-16,91.1,78.7,62.4,42.1,30.5,13.1,47,19,7,29.86,29.80,26,6,26,0.00
2013-6-17,91.8,79.7,69.6,39.3,33.3,24.2,30,20,11,29.84,29.75,29,8,34,0.00
2013-6-18,88.6,77.2,67.2,50.5,41.4,32.0,51,29,16,29.78,29.67,19,4,26,0.00
2013-6-19,84.2,70.3,58.6,44.4,27.8,9.5,46,25,6,29.79,29.70,28,9,28,0.00
2013-6-20,89.8,74.3,63.0,38.0,26.6,12.6,39,19,6,29.77,29.69,30,7,30,0.00
2013-6-21,89.9,76.9,59.4,48.5,35.8,24.8,48,24,12,29.76,29.69,21,3,25,0.00
2013-6-22,94.8,79.7,68.6,51.5,39.4,27.0,41,25,10,29.75,29.64,17,3,22,0.00
2013-6-23,81.3,74.3,67.7,54.2,46.5,39.4,56,38,28,29.68,29.62,19,4,20,0.00
2013-6-24,72.4,66.9,60.2,55.8,52.6,48.1,68,60,52,29.81,29.65,21,5,25,0.00
2013-6-25,89.6,78.0,65.4,56.5,53.0,49.8,62,43,28,29.85,29.77,25,5,29,0.00
2013-6-26,97.3,83.8,65.3,60.3,55.2,49.4,79,40,21,29.84,29.77,18,2,20,0.00
2013-6-27,99.8,86.0,71.3,57.3,53.3,48.5,55,34,19,29.88,29.81,19,3,23,0.00
2013-6-28,105.6,89.1,72.0,58.4,52.3,42.4,59,31,16,29.86,29.71,21,2,24,0.00
2013-6-29,108.8,92.9,72.5,57.8,49.5,39.2,52,25,10,29.76,29.61,16,2,21,0.00
2013-6-30,112.5,93.5,73.3,55.1,47.1,36.2,48,22,8,29.67,29.55,20,1,24,0.00
2013-7-1,101.5,88.9,78.9,56.0,49.4,40.7,42,27,17,29.72,29.59,30,4,30,0.00
2013-7-2,100.7,90.0,80.1,53.3,47.8,41.7,38,24,14,29.79,29.70,24,4,27,0.00
2013-7-3,103.8,91.0,80.6,56.1,50.5,47.1,42,26,16,29.73,29.57,17,2,21,0.00
2013-7-4,101.0,89.3,75.8,58.3,51.6,48.1,49,29,20,29.62,29.51,22,4,35,0.00
2013-7-5,96.0,86.4,80.3,55.6,50.8,46.1,34,30,24,29.61,29.54,19,5,26,0.00
2013-7-6,95.9,85.1,77.5,57.0,48.4,43.4,39,29,17,29.62,29.55,18,4,24,0.00
2013-7-7,99.2,87.4,72.3,52.7,41.8,32.5,41,22,11,29.70,29.60,19,2,22,0.00
2013-7-8,101.2,86.5,67.5,49.4,37.6,25.5,52,21,7,29.83,29.70,14,1,21,0.00
2013-7-9,103.3,87.8,67.7,50.5,39.4,29.3,46,20,8,29.87,29.78,17,2,19,0.00
2013-7-10,97.7,84.6,74.2,53.2,45.0,37.4,40,26,13,29.82,29.71,14,2,16,0.00
2013-7-11,88.1,79.9,73.7,57.6,50.3,39.3,54,36,20,29.80,29.69,21,3,21,0.02
2013-7-12,93.9,82.0,71.5,55.2,49.0,39.4,53,34,16,29.79,29.70,18,3,22,0.00
2013-7-13,99.4,85.8,66.1,52.5,43.9,38.1,59,25,14,29.81,29.71,18,2,18,0.00
2013-7-14,99.3,87.0,68.5,50.3,38.4,31.6,47,20,10,29.79,29.67,24,4,28,0.00
2013-7-15,94.4,83.4,70.8,45.3,37.2,31.4,40,20,13,29.71,29.65,27,3,27,0.00
2013-7-16,91.9,79.4,64.5,37.2,27.2,9.8,31,16,6,29.84,29.69,18,3,24,0.00
2013-7-17,97.3,83.6,65.7,43.3,29.9,8.0,44,16,6,29.89,29.80,15,2,17,0.00
2013-7-18,101.4,82.0,61.3,45.8,34.8,24.6,56,21,7,29.87,29.70,18,1,18,0.00
2013-7-19,103.9,84.4,65.0,49.6,41.1,32.6,52,24,9,29.77,29.62,22,2,23,0.00
2013-7-20,98.2,85.5,71.2,60.4,49.8,38.3,45,31,14,29.68,29.58,22,3,24,0.00
2013-7-21,90.4,81.7,70.5,63.0,57.5,52.0,77,44,36,29.80,29.61,21,2,21,0.28
2013-7-22,90.9,78.6,66.7,69.3,61.6,44.9,95,60,27,29.84,29.74,23,2,23,0.08
2013-7-23,93.5,81.9,67.7,64.4,56.9,43.8,73,44,31,29.86,29.75,18,2,20,0.00
2013-7-24,98.3,85.5,69.9,60.6,54.5,49.2,65,37,23,29.81,29.71,17,2,18,0.00
2013-7-25,98.8,88.5,73.5,56.6,50.4,46.6,51,28,19,29.83,29.72,18,2,21,0.00
2013-7-26,93.0,85.4,77.4,60.6,53.7,48.5,49,34,28,29.90,29.80,15,1,19,0.00
2013-7-27,97.5,85.7,74.6,60.5,55.0,50.1,58,36,26,29.85,29.67,20,2,20,0.00
2013-7-28,91.9,83.0,76.5,53.6,42.8,16.5,43,26,10,29.71,29.62,23,5,30,0.00
2013-7-29,90.4,81.6,74.0,42.5,31.3,16.0,27,17,10,29.86,29.70,18,4,20,0.00
2013-7-30,93.4,81.4,68.0,47.7,39.0,22.3,38,23,14,29.92,29.82,24,3,24,0.00
2013-7-31,94.5,78.2,60.8,52.2,44.7,20.2,71,34,12,29.92,29.80,20,2,24,0.00
2013-8-1,92.8,79.2,61.5,51.6,41.0,30.2,61,28,12,29.84,29.74,23,4,24,0.00
2013-8-2,90.7,79.0,62.2,47.4,37.5,27.2,52,23,12,29.79,29.72,18,3,23,0.00
2013-8-3,93.0,80.4,70.8,47.6,36.0,24.3,32,21,11,29.82,29.74,23,3,23,0.00
2013-8-4,95.2,80.5,61.4,43.3,30.0,7.8,49,18,5,29.83,29.74,22,3,26,0.00
2013-8-5,93.8,81.5,69.4,41.9,25.5,-8.3,32,15,2,29.83,29.73,20,3,27,0.00
2013-8-6,91.2,79.9,68.4,43.7,22.9,-17.2,30,14,3,29.86,29.77,22,5,27,0.00
2013-8-7,88.1,76.6,62.2,47.8,37.3,24.7,50,26,11,29.89,29.82,16,4,21,0.00
2013-8-8,87.9,75.5,65.8,48.6,40.0,24.2,47,30,10,29.85,29.75,22,3,22,0.00
2013-8-9,87.5,76.1,67.3,45.5,33.2,16.4,44,23,8,29.82,29.75,18,3,23,0.00
2013-8-10,88.8,77.6,62.7,49.6,43.3,28.0,53,31,19,29.86,29.79,19,2,19,0.00
2013-8-11,93.9,78.6,59.4,50.1,43.6,32.9,70,31,15,29.84,29.73,15,2,18,0.00
2013-8-12,98.0,81.4,61.2,48.8,42.6,30.7,57,27,10,29.82,29.73,14,2,16,0.00
2013-8-13,99.8,83.2,62.4,47.5,38.2,22.2,57,23,8,29.83,29.73,14,2,21,0.00
2013-8-14,101.5,85.4,65.1,47.0,36.6,24.1,42,19,7,29.80,29.69,11,1,13,0.00
2013-8-15,100.8,83.2,66.1,45.9,37.8,27.5,43,21,10,29.81,29.72,21,2,21,0.00
2013-8-16,97.4,84.6,71.5,53.7,45.6,39.2,41,26,19,29.81,29.72,23,3,23,0.00
2013-8-17,99.3,86.9,75.0,47.5,40.9,29.9,35,21,9,29.80,29.66,13,2,18,0.00
2013-8-18,101.8,83.2,63.9,63.6,47.6,37.3,61,31,15,29.81,29.65,14,1,18,0.01
2013-8-19,96.9,83.2,70.3,63.1,56.8,43.4,69,43,23,29.84,29.69,13,2,18,0.00
2013-8-20,96.4,82.3,67.6,54.8,46.0,36.2,59,31,14,29.77,29.70,18,2,18,0.00
2013-8-21,97.6,84.2,68.1,49.4,42.1,35.4,50,24,13,29.80,29.70,19,2,20,0.00
2013-8-22,98.2,85.1,71.5,47.8,39.0,30.1,30,20,12,29.81,29.68,16,2,20,0.00
2013-8-23,96.5,81.0,62.8,44.9,35.2,24.0,51,22,9,29.74,29.61,15,2,21,0.00
2013-8-24,95.0,78.0,59.2,40.9,32.0,18.9,45,22,7,29.77,29.65,15,2,21,0.00
2013-8-25,94.0,78.7,59.1,47.9,33.2,20.0,56,21,9,29.84,29.74,17,2,20,0.00
2013-8-26,90.4,76.6,61.5,63.5,51.6,32.0,60,43,21,29.89,29.73,14,1,15,0.00
2013-8-27,91.2,78.8,68.0,65.0,60.5,57.1,81,55,36,29.79,29.66,11,1,13,0.00
2013-8-28,96.0,79.9,67.2,60.5,57.7,52.2,72,49,29,29.80,29.70,19,2,19,0.00
2013-8-29,98.7,85.1,69.2,56.9,51.9,48.4,58,33,22,29.86,29.75,12,2,14,0.00
2013-8-30,97.7,83.3,69.5,64.6,57.3,47.4,59,43,28,29.88,29.75,19,3,22,0.00
2013-8-31,91.0,82.1,76.4,65.9,64.5,62.8,67,56,41,29.83,29.73,21,5,24,0.00
2013-9-1,91.8,81.2,74.7,65.1,62.3,59.5,70,54,36,29.79,29.71,15,4,22,0.00
2013-9-2,95.1,83.7,72.8,61.3,56.2,49.7,64,41,25,29.80,29.68,15,2,19,0.00
2013-9-3,95.5,84.3,72.7,58.4,54.0,48.6,57,37,25,29.79,29.70,17,2,21,0.00
2013-9-4,100.2,83.8,67.8,58.0,53.0,48.8,65,37,19,29.84,29.72,14,2,17,0.00
2013-9-5,99.5,84.4,69.5,57.2,50.7,46.4,57,33,18,29.80,29.70,15,2,18,0.00
2013-9-6,99.3,83.5,67.7,52.4,47.5,41.5,55,31,17,29.80,29.67,17,2,19,0.00
2013-9-7,98.7,83.5,66.0,50.5,42.9,36.4,48,26,14,29.79,29.67,12,2,17,0.00
2013-9-8,98.3,83.5,67.8,48.4,41.9,37.6,46,24,13,29.74,29.60,16,1,18,0.00
2013-9-9,95.7,81.4,71.2,55.7,47.3,35.8,53,33,18,29.72,29.57,25,2,25,0.00
2013-9-10,89.0,79.7,74.5,43.4,39.7,36.0,31,24,17,29.74,29.60,20,5,26,0.00
2013-9-11,89.5,79.6,74.6,46.7,38.7,31.0,33,23,19,29.81,29.73,23,4,23,0.00
2013-9-12,94.1,80.3,68.3,47.9,38.9,25.4,42,24,9,29.80,29.70,15,2,19,0.00
2013-9-13,95.1,79.9,62.3,48.9,44.7,39.4,52,31,17,29.74,29.57,13,1,20,0.00
2013-9-14,98.7,80.7,62.4,54.0,47.0,39.4,71,34,14,29.65,29.53,13,1,14,0.00
2013-9-15,97.6,81.6,64.1,52.4,44.5,37.5,60,31,13,29.68,29.59,21,2,25,0.00
2013-9-16,95.5,79.1,62.0,46.7,39.7,29.3,55,26,14,29.74,29.63,14,1,19,0.00
2013-9-17,87.9,75.8,62.1,46.7,36.1,18.8,42,26,8,29.69,29.58,21,3,23,0.00
2013-9-18,87.4,72.0,56.1,50.2,41.0,28.8,72,36,13,29.71,29.62,19,1,20,0.00
2013-9-19,91.6,73.9,54.2,48.1,38.8,26.3,67,34,10,29.78,29.65,12,1,14,0.00
2013-9-20,86.9,71.7,57.7,55.0,44.9,36.7,65,40,21,29.73,29.62,27,3,27,0.00
2013-9-21,76.5,66.9,59.0,52.8,48.7,43.9,69,52,40,29.74,29.66,21,4,25,0.00
2013-9-22,71.8,61.2,52.8,47.4,40.9,36.0,68,49,28,29.86,29.71,23,6,25,0.00
2013-9-23,85.8,66.5,47.8,44.5,38.9,34.0,82,43,17,29.95,29.83,11,1,11,0.00
2013-9-24,88.3,71.9,55.1,43.0,36.2,27.0,57,31,14,29.87,29.72,22,3,25,0.00
2013-9-25,74.8,65.5,57.3,52.0,42.0,38.3,58,43,29,29.72,29.57,28,7,30,0.00
2013-9-26,67.5,57.9,51.7,39.4,34.3,25.8,60,42,21,29.89,29.64,26,8,29,0.00
2013-9-27,72.7,59.2,43.8,37.1,28.2,19.0,72,35,14,30.04,29.88,17,2,19,0.00
2013-9-28,80.1,62.1,43.6,33.4,28.5,21.2,64,33,12,30.09,29.96,8,1,11,0.00
2013-9-29,87.8,69.8,50.5,39.2,28.4,17.4,60,25,8,30.03,29.90,19,2,22,0.00
2013-9-30,85.0,74.0,61.5,39.9,34.2,29.0,40,24,16,29.93,29.76,25,5,26,0.00
2013-10-1,84.5,70.0,55.4,50.6,40.1,29.6,50,35,20,29.82,29.74,16,2,21,0.00
2013-10-2,78.8,69.8,62.5,53.2,44.5,34.0,59,41,30,29.80,29.73,15,3,25,0.00
2013-10-3,74.9,65.0,52.4,39.1,31.3,20.2,43,30,14,29.87,29.71,28,6,29,0.00
2013-10-4,71.5,59.8,44.9,33.1,18.8,9.4,53,23,9,30.14,29.87,24,5,27,0.00
2013-10-5,75.3,59.9,42.1,26.1,19.2,11.6,51,23,9,30.26,30.13,30,4,30,0.00
2013-10-6,80.7,61.0,42.7,27.5,21.4,9.9,51,25,7,30.18,29.99,12,1,14,0.00
2013-10-7,82.7,64.9,46.8,29.8,23.8,14.5,50,24,8,30.00,29.81,18,2,22,0.00
2013-10-8,75.3,65.7,54.8,47.1,34.3,25.8,72,34,19,29.82,29.63,29,6,29,0.00
2013-10-9,55.1,51.4,46.3,47.9,43.6,38.0,90,75,60,29.74,29.55,28,5,28,0.13
2013-10-10,64.6,53.9,41.8,44.1,39.7,35.3,80,60,40,29.95,29.74,15,3,15,0.01
2013-10-11,73.9,59.0,42.9,43.9,39.1,35.0,87,51,26,30.02,29.89,11,1,11,0.00
2013-10-12,76.1,60.9,44.6,42.5,38.4,32.3,75,47,21,29.93,29.79,18,2,18,0.00
2013-10-13,69.7,59.4,47.4,43.3,37.0,31.4,65,44,27,29.99,29.81,21,3,21,0.00
2013-10-14,71.9,55.7,40.4,39.3,33.4,27.5,85,48,20,30.11,29.96,14,2,14,0.00
2013-10-15,73.3,57.5,40.7,34.0,28.8,24.4,73,37,17,30.04,29.94,15,2,15,0.00
2013-10-16,71.7,56.2,41.7,29.6,25.4,19.7,56,33,14,30.16,30.01,15,1,15,0.00
2013-10-17,78.8,59.4,40.8,38.9,30.5,26.4,75,37,15,30.06,29.89,14,1,14,0.00
2013-10-18,78.9,59.7,43.1,33.8,28.5,18.9,68,36,11,30.06,29.95,10,1,10,0.00
2013-10-19,79.1,60.5,41.7,32.0,26.1,15.2,60,31,9,30.09,29.95,6,0,6,0.00
2013-10-20,83.2,63.1,45.6,38.1,28.8,17.1,67,31,9,29.97,29.82,12,1,12,0.00
2013-10-21,81.2,61.1,43.4,34.7,27.3,16.2,64,33,9,29.98,29.87,8,0,8,0.00
2013-10-22,79.4,56.4,44.2,33.3,26.3,21.0,56,35,12,30.02,29.93,6,0,6,0.00
2013-10-23,80.8,70.7,55.5,34.2,28.1,21.4,38,22,12,29.91,29.79,7,1,10,0.00
2013-10-24,82.9,65.1,47.3,45.0,29.6,19.6,56,31,10,29.96,29.84,13,1,18,0.00
2013-10-25,82.3,63.9,47.3,36.1,30.8,23.4,58,32,12,30.06,29.95,7,0,7,0.00
2013-10-26,83.1,63.2,46.4,37.4,31.3,22.6,67,34,11,30.11,29.95,5,0,7,0.00
2013-10-27,80.6,62.3,47.4,47.6,34.9,21.6,76,40,12,29.97,29.64,26,4,31,0.00
2013-10-28,58.3,52.1,48.1,48.2,41.6,35.1,81,68,42,29.86,29.58,31,8,33,0.00
2013-10-29,59.2,51.3,45.7,42.7,40.2,37.8,86,67,48,29.97,29.84,18,4,20,0.04
2013-10-30,63.2,51.2,39.3,39.2,34.3,28.8,85,55,28,30.08,29.96,13,2,16,0.00
2013-10-31,68.3,50.7,35.8,37.0,31.6,25.5,88,53,20,30.19,30.06,12,1,12,0.00
2013-11-1,73.2,54.4,38.3,34.7,29.0,26.0,71,42,18,30.21,30.04,13,1,16,0.00
2013-11-2,75.8,58.1,40.0,34.3,29.9,27.0,70,38,17,30.07,29.83,18,2,21,0.00
2013-11-3,71.2,60.8,48.8,47.0,36.4,28.3,74,42,27,29.83,29.69,19,4,22,0.00
2013-11-4,66.1,53.6,41.3,45.1,33.1,26.5,79,49,25,29.98,29.68,14,1,15,0.00
2013-11-5,61.6,47.8,34.1,29.7,19.0,7.1,77,38,13,30.28,29.98,19,3,21,0.00
2013-11-6,68.1,49.4,32.8,22.7,16.8,9.2,56,31,10,30.38,30.24,13,1,15,0.00
2013-11-7,70.2,53.0,38.5,28.8,22.5,16.3,54,33,15,30.27,30.05,5,0,7,0.00
2013-11-8,76.5,57.8,38.6,29.1,23.2,12.6,55,30,9,30.08,29.91,15,1,17,0.00
2013-11-9,72.5,56.3,41.5,28.2,24.4,16.3,56,32,13,30.06,29.95,7,0,7,0.00
2013-11-10,70.3,53.4,39.5,29.9,24.8,18.9,59,36,15,30.16,30.06,6,0,6,0.00
2013-11-11,73.8,54.8,38.0,32.5,25.8,21.6,65,36,15,30.19,30.08,8,0,8,0.00
2013-11-12,72.0,56.5,45.7,33.3,27.1,19.0,52,35,14,30.24,30.15,7,0,8,0.00
2013-11-13,75.2,56.6,40.6,33.2,25.8,18.8,60,34,12,30.17,30.00,6,0,7,0.00
2013-11-14,75.5,60.5,41.5,33.8,30.0,27.1,67,35,17,30.05,29.70,8,1,10,0.00
2013-11-15,65.9,59.1,53.0,46.7,39.6,28.1,73,50,28,29.71,29.55,26,6,26,0.00
2013-11-16,58.7,54.1,50.9,45.5,44.1,39.3,77,69,58,29.86,29.64,26,7,30,0.00
2013-11-17,63.3,52.9,43.6,43.8,39.5,32.6,84,63,32,30.08,29.85,16,2,18,0.00
2013-11-18,65.1,52.1,38.7,47.0,40.8,34.2,86,68,42,30.14,29.98,17,2,19,0.00
2013-11-19,65.5,57.2,50.4,45.5,42.2,37.8,79,58,37,30.02,29.84,22,4,22,0.00
2013-11-20,63.1,56.4,52.8,49.0,45.8,41.0,81,68,51,29.86,29.75,26,8,27,0.00
2013-11-21,59.6,51.5,42.7,52.1,47.2,40.5,94,86,58,29.94,29.74,12,1,18,0.52
2013-11-22,43.8,42.1,40.8,40.7,38.6,37.1,93,87,79,30.07,29.93,17,4,20,0.16
2013-11-23,46.9,43.1,40.7,42.0,39.7,37.8,97,88,74,30.16,30.05,11,1,11,0.04
2013-11-24,54.2,44.8,38.1,43.8,39.1,35.7,96,82,56,30.24,30.14,10,1,11,0.00
2013-11-25,61.3,45.9,34.3,43.6,37.0,32.2,95,74,39,30.33,30.22,7,0,7,0.00
2013-11-26,61.6,48.2,36.9,42.2,38.2,33.6,92,71,42,30.30,30.14,10,1,11,0.00
2013-11-27,59.2,48.9,40.6,41.5,39.1,35.3,88,70,48,30.14,29.92,10,1,10,0.00
2013-11-28,57.9,47.3,38.4,40.7,37.6,34.3,87,70,46,30.10,29.94,6,0,7,0.00
2013-11-29,54.1,47.7,41.5,43.9,40.3,35.9,86,76,59,30.23,30.09,6,0,6,0.02
2013-11-30,62.7,49.1,38.9,42.3,37.5,33.5,94,68,35,30.27,30.16,6,0,8,0.00
2013-12-1,64.1,48.2,35.2,38.4,34.1,31.1,87,62,31,30.35,30.21,10,1,11,0.00
2013-12-2,74.0,53.9,35.9,41.3,29.4,19.1,82,46,15,30.24,29.86,21,1,21,0.00
2013-12-3,63.7,54.9,40.9,47.1,34.5,24.9,86,50,27,29.87,29.59,38,8,38,0.03
2013-12-4,48.4,39.6,32.2,29.5,21.5,14.3,70,50,26,30.00,29.73,25,4,31,0.00
2013-12-5,46.7,35.2,25.6,22.8,18.1,12.8,76,52,27,30.14,29.98,7,0,8,0.00
2013-12-6,49.9,37.5,24.0,35.2,26.2,18.4,80,65,40,30.19,30.06,21,4,25,0.00
2013-12-7,44.1,39.6,34.6,39.2,30.0,19.7,91,69,55,30.11,29.92,32,10,35,0.01
2013-12-8,42.0,33.5,24.5,21.0,17.4,13.1,73,53,32,30.31,30.10,12,1,15,0.00
2013-12-9,43.1,30.3,20.3,15.8,6.9,-3.3,77,43,15,30.54,30.31,21,3,24,0.00
2013-12-10,46.1,30.2,18.9,10.9,6.3,1.0,59,38,17,30.53,30.28,3,0,6,0.00
2013-12-11,51.8,35.0,21.8,16.2,11.8,7.5,63,41,18,30.41,30.31,4,0,5,0.00
2013-12-12,57.4,40.7,27.2,20.1,16.3,13.9,63,40,19,30.36,30.17,5,0,7,0.00
2013-12-13,62.8,48.6,35.4,21.9,16.8,11.7,50,30,14,30.31,30.13,12,1,17,0.00
2013-12-14,60.1,43.5,29.6,24.1,19.5,16.9,64,41,20,30.47,30.30,20,2,20,0.00
2013-12-15,61.9,45.0,30.7,24.8,22.0,19.8,67,43,20,30.45,30.29,8,0,8,0.00
2013-12-16,63.6,47.8,34.5,27.6,23.8,18.8,64,41,19,30.35,30.23,4,0,4,0.00
2013-12-17,66.7,49.9,36.0,28.6,25.6,21.6,66,42,18,30.31,30.09,4,0,4,0.00
2013-12-18,63.4,53.9,46.9,44.4,31.3,23.4,74,44,23,30.10,29.68,24,2,30,0.00
2013-12-19,50.5,46.6,37.3,42.2,39.0,33.2,86,75,65,29.82,29.59,35,6,35,0.02
2013-12-20,52.6,41.1,32.5,37.2,28.1,21.1,92,63,30,29.98,29.81,10,1,10,0.00
2013-12-21,65.2,47.5,33.2,37.9,30.5,21.5,73,54,32,30.07,29.88,8,1,12,0.00
2013-12-22,58.9,44.3,32.3,35.0,31.5,28.2,88,63,37,30.35,30.07,5,0,7,0.00
2013-12-23,62.5,45.5,33.0,32.8,30.5,27.4,83,59,31,30.46,30.34,12,1,13,0.00
2013-12-24,64.3,46.3,32.6,33.6,31.2,27.7,84,59,30,30.37,30.23,5,0,6,0.00
2013-12-25,63.3,46.4,33.2,32.7,25.3,18.0,81,49,19,30.42,30.29,17,2,18,0.00
2013-12-26,62.1,43.8,29.3,24.8,19.4,14.3,70,42,16,30.38,30.25,6,0,7,0.00
2013-12-27,63.4,45.7,29.7,20.3,16.2,9.7,62,34,12,30.34,30.13,4,0,4,0.00
2013-12-28,73.1,50.5,36.9,22.6,14.6,-6.9,45,28,4,30.13,29.93,19,1,21,0.00
2013-12-29,61.2,44.6,31.5,18.5,12.8,5.2,49,30,11,30.28,30.07,22,2,22,0.00
2013-12-30,60.7,42.9,28.4,18.0,13.5,7.3,56,33,12,30.36,30.24,4,0,4,0.00
2013-12-31,63.0,44.8,31.4,19.8,16.0,11.8,52,34,15,30.29,30.13,4,0,5,0.00
2014-1-1,64.4,45.5,30.2,23.4,17.8,12.7,58,36,15,30.29,30.17,4,0,5,0.00
2014-1-2,64.0,47.0,33.4,27.6,23.9,20.6,62,42,22,30.25,30.10,5,0,6,0.00